Tokyo, Japan

3:39 PM JST on February 25, 2018 (GMT +0900)
Tokyo (Haneda) International

Weather History for RJTT - January, 2013

Change the Weather History Date:

Friday, January 4, 2013

  Actual Average Record
Temperature  
Mean Temperature 38 °F -  
Max Temperature 42 °F 47 °F 64 °F (2005)
Min Temperature 33 °F 35 °F 33 °F (2002)
Degree Days  
Heating Degree Days 28    
Moisture  
Dew Point 10 °F    
Average Humidity 33    
Maximum Humidity 48    
Minimum Humidity 23    
Precipitation  
Precipitation 0.00 in - - ()
Sea Level Pressure  
Sea Level Pressure 30.09 in    
Wind  
Wind Speed 15 mph ()    
Max Wind Speed 25 mph    
Max Gust Speed 36 mph    
Visibility 6.2 miles    
Events      
Averages and records for this station are not official NWS values.
T = Trace of Precipitation, MM = Missing Value Source: Averaged Metar Reports

Daily Weather History Graph

Daily Weather History Graph

Search for Another Location

Airport or City:

Trip Planner

Search our weather history database for the weather conditions in past years. The results will help you decide how hot, cold, wet, or windy it might be!

Date:

Astronomy

Jan. 04, 2013 Rise Set
Actual Time 6:50 AM JST 4:40 PM JST
Civil Twilight 6:22 AM JST 5:09 PM JST
Nautical Twilight 5:50 AM JST 5:40 PM JST
Astronomical Twilight 5:19 AM JST 6:11 PM JST
Moon 11:23 PM JST (1/4) 10:27 AM JST (1/4)
Length of Visible Light 10h 46m
Length of Day
9h 50m
Waning Gibbous, 61% of the Moon is Illuminated
Jan 4
Waning Gibbous
Jan 5
Last Quarter
Jan 12
New
Jan 19
First Quarter
Jan 27
Full

Hourly Weather History & Observations

Time (JST) Temp. Windchill Dew Point Humidity Pressure Visibility Wind Dir Wind Speed Gust Speed Precip Events Conditions
12:00 AM 33.8 °F 25.8 °F 14.0 °F 44% 30.04 in 6.2 mi NW 10.4 mph - N/A   Mostly Cloudy
12:30 AM 35.6 °F 26.2 °F 14.0 °F 41% 30.04 in 6.2 mi NW 15.0 mph - N/A   Scattered Clouds
1:00 AM 33.8 °F 24.8 °F 14.0 °F 44% 30.06 in 6.2 mi NW 12.7 mph - N/A   Partly Cloudy
1:30 AM 33.8 °F 26.4 °F 14.0 °F 44% 30.06 in 6.2 mi NW 9.2 mph - N/A   Partly Cloudy
2:00 AM 33.8 °F 24.8 °F 14.0 °F 44% 30.06 in 6.2 mi NW 12.7 mph - N/A   Partly Cloudy
2:30 AM 35.6 °F 26.6 °F 12.2 °F 38% 30.06 in 6.2 mi NNW 13.8 mph - N/A   Partly Cloudy
3:00 AM 35.6 °F 25.9 °F 12.2 °F 38% 30.06 in 6.2 mi NNW 16.1 mph - N/A   Partly Cloudy
3:30 AM 35.6 °F 25.9 °F 12.2 °F 38% 30.06 in 6.2 mi NNW 16.1 mph - N/A   Partly Cloudy
4:00 AM 35.6 °F 25.5 °F 12.2 °F 38% 30.06 in 6.2 mi NNW 17.3 mph - N/A   Partly Cloudy
4:18 AM 35.6 °F 25.5 °F 12.2 °F 38% 30.06 in 6.2 mi NNW 17.3 mph 29.9 mph N/A   Partly Cloudy
4:30 AM 35.6 °F 24.8 °F 12.2 °F 38% 30.06 in 6.2 mi NNW 19.6 mph - N/A   Partly Cloudy
5:00 AM 35.6 °F 25.9 °F 17.6 °F 48% 30.06 in 6.2 mi NNW 16.1 mph - N/A   Partly Cloudy
5:30 AM 33.8 °F 21.9 °F 12.2 °F 41% 30.09 in 6.2 mi NNW 21.9 mph - N/A   Partly Cloudy
5:39 AM 35.6 °F 24.2 °F 14.0 °F 41% 30.09 in 6.2 mi NNW 21.9 mph 33.4 mph N/A   Partly Cloudy
6:00 AM 35.6 °F 25.2 °F 14.0 °F 41% 30.09 in 6.2 mi NNW 18.4 mph - N/A   Partly Cloudy
6:06 AM 35.6 °F 25.5 °F 12.2 °F 38% 30.09 in 6.2 mi NNW 17.3 mph 28.8 mph N/A   Partly Cloudy
6:30 AM 35.6 °F 25.2 °F 12.2 °F 38% 30.09 in 6.2 mi NNW 18.4 mph - N/A   Partly Cloudy
7:00 AM 35.6 °F 25.2 °F 10.4 °F 35% 30.09 in 6.2 mi NNW 18.4 mph - N/A   Partly Cloudy
7:30 AM 35.6 °F 24.8 °F 10.4 °F 35% 30.12 in 6.2 mi NNW 19.6 mph - N/A   Partly Cloudy
8:00 AM 35.6 °F 24.0 °F 8.6 °F 33% 30.12 in 6.2 mi NNW 23.0 mph - N/A   Partly Cloudy
8:20 AM 37.4 °F 27.2 °F 8.6 °F 30% 30.12 in 6.2 mi NNW 19.6 mph 31.1 mph N/A   Partly Cloudy
8:30 AM 37.4 °F 27.2 °F 8.6 °F 30% 30.12 in 6.2 mi NNW 19.6 mph - N/A   Partly Cloudy
9:00 AM 37.4 °F 26.6 °F 6.8 °F 28% 30.12 in 6.2 mi NNW 21.9 mph - N/A   Partly Cloudy
9:02 AM 39.2 °F 28.7 °F 6.8 °F 26% 30.12 in 6.2 mi NW 23.0 mph 34.5 mph N/A   Partly Cloudy
9:30 AM 39.2 °F 28.3 °F 6.8 °F 26% 30.12 in 6.2 mi NNW 25.3 mph - N/A   Partly Cloudy
9:31 AM 39.2 °F 28.5 °F 8.6 °F 28% 30.12 in 6.2 mi NNW 24.2 mph 35.7 mph N/A   Partly Cloudy
10:00 AM 39.2 °F 28.7 °F 8.6 °F 28% 30.12 in 6.2 mi NNW 23.0 mph 34.5 mph N/A   Partly Cloudy
10:30 AM 39.2 °F 29.3 °F 8.6 °F 28% 30.12 in 6.2 mi NNW 20.7 mph - N/A   Partly Cloudy
10:42 AM 41.0 °F 31.6 °F 6.8 °F 24% 30.09 in 6.2 mi NNW 20.7 mph 35.7 mph N/A   Partly Cloudy
11:00 AM 41.0 °F 32.2 °F 6.8 °F 24% 30.09 in 6.2 mi NNW 18.4 mph - N/A   Partly Cloudy
11:30 AM 41.0 °F 32.5 °F 6.8 °F 24% 30.06 in 6.2 mi NW 17.3 mph - N/A   Partly Cloudy
12:00 PM 41.0 °F 32.5 °F 10.4 °F 29% 30.06 in 6.2 mi NNW 17.3 mph - N/A   Partly Cloudy
12:30 PM 42.8 °F 34.3 °F 6.8 °F 23% 30.06 in 6.2 mi NNW 19.6 mph - N/A   Partly Cloudy
1:00 PM 42.8 °F 35.4 °F 6.8 °F 23% 30.06 in 6.2 mi NNW 15.0 mph - N/A   Partly Cloudy
1:30 PM 42.8 °F 35.8 °F 12.2 °F 29% 30.06 in 6.2 mi North 13.8 mph - N/A   Partly Cloudy
2:00 PM 42.8 °F 35.1 °F 6.8 °F 23% 30.06 in 6.2 mi NNW 16.1 mph - N/A   Partly Cloudy
2:30 PM 42.8 °F 35.4 °F 6.8 °F 23% 30.06 in 6.2 mi NNW 15.0 mph - N/A   Partly Cloudy
3:00 PM 42.8 °F 38.0 °F 6.8 °F 23% 30.06 in 6.2 mi NNW 8.1 mph - N/A   Partly Cloudy
3:30 PM 42.8 °F 35.4 °F 6.8 °F 23% 30.06 in 6.2 mi NNW 15.0 mph - N/A   Partly Cloudy
4:00 PM 41.0 °F 33.5 °F 12.2 °F 31% 30.09 in 6.2 mi NNW 13.8 mph - N/A   Partly Cloudy
4:30 PM 39.2 °F 31.6 °F 6.8 °F 26% 30.09 in 6.2 mi NNW 12.7 mph - N/A   Partly Cloudy
5:00 PM 39.2 °F 30.8 °F 8.6 °F 28% 30.09 in 6.2 mi NNW 15.0 mph - N/A   Partly Cloudy
5:30 PM 37.4 °F 27.5 °F 10.4 °F 33% 30.09 in 6.2 mi NNW 18.4 mph - N/A   Partly Cloudy
6:00 PM 37.4 °F 27.5 °F 10.4 °F 33% 30.12 in 6.2 mi NNW 18.4 mph - N/A   Partly Cloudy
6:30 PM 37.4 °F 27.8 °F 12.2 °F 36% 30.12 in 6.2 mi NNW 17.3 mph - N/A   Partly Cloudy
7:00 PM 37.4 °F 26.9 °F 14.0 °F 38% 30.12 in 6.2 mi NNW 20.7 mph - N/A   Scattered Clouds
7:30 PM 37.4 °F 28.2 °F 12.2 °F 36% 30.12 in 6.2 mi NNW 16.1 mph - N/A   Partly Cloudy
8:00 PM 37.4 °F 27.8 °F 12.2 °F 36% 30.12 in 6.2 mi NNW 17.3 mph - N/A   Partly Cloudy
8:30 PM 37.4 °F 27.8 °F 14.0 °F 38% 30.12 in 6.2 mi NNW 17.3 mph - N/A   Partly Cloudy
9:00 PM 37.4 °F 27.2 °F 10.4 °F 33% 30.12 in 6.2 mi NNW 19.6 mph - N/A   Partly Cloudy
9:30 PM 37.4 °F 27.5 °F 10.4 °F 33% 30.12 in 6.2 mi NNW 18.4 mph - N/A   Partly Cloudy
10:00 PM 37.4 °F 27.2 °F 10.4 °F 33% 30.12 in 6.2 mi NNW 19.6 mph - N/A   Partly Cloudy
10:30 PM 37.4 °F 28.2 °F 8.6 °F 30% 30.12 in 6.2 mi NNW 16.1 mph - N/A   Partly Cloudy
11:00 PM 37.4 °F 26.9 °F 8.6 °F 30% 30.12 in 6.2 mi NNW 20.7 mph - N/A   Partly Cloudy
11:30 PM 37.4 °F 27.5 °F 10.4 °F 33% 30.12 in 6.2 mi NNW 18.4 mph - N/A   Partly Cloudy